AirNav   ProFlight Series 2 Aviation Headset
 
 1065 users online  

13MI Lee Memorial Hospital Heliport
Dowagiac, Michigan, USA

GOING TO DOWAGIAC?


FAA INFORMATION EFFECTIVE 16 JULY 2020

Location

FAA Identifier: 13MI
Lat/Long: 41-58-59.8900N 086-06-52.4100W
41-58.998167N 086-06.873500W
41.9833028,-86.1145583
(estimated)
Elevation: 748 ft. / 228 m (estimated)
Variation: 02W (1985)
Time zone: UTC -4 (UTC -5 during Standard Time)
Zip code: 49047

Heliport Operations

Heliport use: Private use, MEDICAL USE.
Activation date: 02/1987
Control tower: no
ARTCC: CHICAGO CENTER
FSS: LANSING FLIGHT SERVICE STATION
Attendance: CONTINUOUS
Wind indicator: lighted
Segmented circle: no

Heliport Communications

WX ASOS at BEH (16 nm NW): 121.55 (269-925-9008)
WX AWOS-3 at EKM (17 nm S): 124.475 (574-264-9002)
WX ASOS at SBN (19 nm SW): PHONE 574-251-2652

Nearby radio navigation aids

VOR radial/distance  VOR name  Freq  Var
ELXr178/9.7KEELER VOR/DME116.6000E
GIJr035/15.8GIPPER VORTAC115.4000E
GSHr352/27.8GOSHEN VORTAC113.7000E
PMMr181/29.0PULLMAN VOR/DME112.1000E
AZOr240/29.3KALAMAZOO VOR/DME109.0001W

 
NDB name  Hdg/Dist  Freq  Var  ID
STURGIS293/32.138204WIRS .. .-. ...

Heliport Services

Runway Information

Helipad H1

Dimensions: 60 x 60 ft. / 18 x 18 m
Surface: asphalt/turf
Latitude: 41-58.998167N
Longitude: 086-06.873500W
Elevation: 748.0 ft.
Traffic pattern: leftleft
Markings: basic

Heliport Ownership and Management from official FAA records

Ownership: Publicly-owned
Owner: LEE MEMORIAL HOSPITAL
420 W HIGH ST
DOWAGIAC, MI 49047
Phone 269-782-8681
Manager: MARIA LUTZ
420 W HIGH ST
DOWAGIAC, MI 49047
Phone (269) 783-3042
EXT 4421. ALSO 269-303-6463.

Additional Remarks

A52-H1 150' ANTENNA 290' SW.
FOR CD CTC CHICAGO ARTCC AT 630-906-8921.

Instrument Procedures

There are no published instrument procedures at 13MI.

Some nearby airports with instrument procedures:

C91 - Dowagiac Municipal Airport (1 nm NW)
3TR - Jerry Tyler Memorial Airport (10 nm SW)
C20 - Andrews University Airpark (11 nm W)
KBEH - Southwest Michigan Regional Airport (16 nm NW)
KEKM - Elkhart Municipal Airport (17 nm S)
KSBN - South Bend International Airport (19 nm SW)
 
Loc | Ops | Rwys | IFR | FBO | Links
Com | Nav | Svcs | Stats | Notes
Area around 13MI (Lee Memorial Hospital Heliport)
 
Road maps at: MapQuest Bing Google
 
Aerial photo
No photo
 
Sectional chart

 
Airport distance calculator
Flying to Lee Memorial Hospital Heliport? Find the distance to fly.

From to 13MI

Sunrise and sunset
Times for 04-Aug-2020
 Local
(UTC-4)
 Zulu
(UTC)
Morning civil twilight06:1210:12
Sunrise06:4310:43
Sunset20:5800:58
Evening civil twilight21:2901:29

Current date and time
Zulu (UTC)  05-Aug-2020 00:15:47
Local (UTC-4)  04-Aug-2020 20:15:47
 
METAR
KBEH 
16nm NW 
042353Z AUTO VRB05KT 10SM CLR 18/09 A3005 RMK AO2 SLP175 T01830094 10217 20183 57002
KEKM 
17nm S 
042351Z 31008KT 10SM CLR 19/09 A3005 RMK AO2
KSBN 
19nm SW 
042354Z 33012KT 10SM CLR 19/10 A3006 RMK AO2 SLP177 T01890100 10228 20189 53003
KLWA 
23nm N 
042355Z AUTO 36004KT 10SM SCT060 18/11 A3005 RMK AO2 T01750112 10208 20175
KHAI 
23nm E 
042355Z AUTO 30009G14KT 10SM CLR 19/10 A3004 RMK AO2 T01910100 10233 20191
KAZO 
29nm NE 
042353Z 31012KT 10SM CLR 19/09 A3004 RMK AO2 SLP171 T01890094 10233 20189 53007
KGSH 
31nm SE 
042353Z AUTO 32011KT 10SM CLR 19/09 A3004 RMK AO2 SLP169 T01940094 10228 20194 53006
KIRS 
32nm E 
042355Z AUTO 32009KT 10SM CLR 19/11 A3002 RMK AO2 T01900107 10226 20190
TAF
KSBN 
19nm SW 
041737Z 0418/0518 33011G18KT P6SM SCT035 FM050000 32005KT P6SM SCT250
NOTAMs
Click for the latest NOTAMs
NOTAMs are issued by the DoD/FAA and will open in a separate window not controlled by AirNav.

 

 
 

Would you like to see your business listed on this page?

 If your business provides an interesting product or service to pilots, flight crews, aircraft, or users of the Lee Memorial Hospital Heliport, you should consider listing it here.  To start the listing process, click on the button below
 
Add a business
 

Other Pages about Lee Memorial Hospital Heliport

Update a link
 
Copyright © AirNav, LLC. All rights reserved. Privacy Policy  Contact